contact:dominique.lefevre@mio.osupytheas.fr, maurice.libes@osupytheas.fr, didier.mallarino@osupytheas.fr
Project:EMSO http://www.emso-fr.org/EMSO-France
Depth: 2436.0 m
Title:EMSO Ligure Ouest : Data MII capteur MICROCAT
DateTime_Computer,Latitude,Longitude,Temperature,Conductivity,Pressure,DateTime_Instrument
DateTime_Computer,Latitude,Longitude,degC,S m-1,dbar,DateTime_Instrument
2020-05-01T00:02:22Z,42.805,6.029,13.2991,4.59991,2470.124,2020-5-01T02:03:02Z
2020-05-01T00:05:25Z,42.805,6.029,13.2989,4.60009,2470.18,2020-5-01T02:06:06Z
2020-05-01T00:08:28Z,42.805,6.029,13.2988,4.60011,2470.124,2020-5-01T02:09:09Z
2020-05-01T00:11:31Z,42.805,6.029,13.3003,4.59996,2470.124,2020-5-01T02:12:12Z
2020-05-01T00:14:34Z,42.805,6.029,13.2991,4.59988,2470.087,2020-5-01T02:15:15Z
2020-05-01T00:17:38Z,42.805,6.029,13.2996,4.60016,2470.147,2020-5-01T02:18:18Z
2020-05-01T00:20:41Z,42.805,6.029,13.3010,4.60027,2470.147,2020-5-01T02:21:22Z
2020-05-01T00:23:44Z,42.805,6.029,13.3034,4.60059,2470.133,2020-5-01T02:24:25Z
2020-05-01T00:26:47Z,42.805,6.029,13.3039,4.60027,2470.171,2020-5-01T02:27:28Z
2020-05-01T00:29:50Z,42.805,6.029,13.2987,4.60026,2470.124,2020-5-01T02:30:31Z
2020-05-01T00:32:54Z,42.805,6.029,13.3011,4.60029,2470.147,2020-5-01T02:33:34Z
2020-05-01T00:35:57Z,42.805,6.029,13.3016,4.60011,2470.133,2020-5-01T02:36:38Z
2020-05-01T00:39:00Z,42.805,6.029,13.3009,4.60042,2470.133,2020-5-01T02:39:41Z
2020-05-01T00:42:03Z,42.805,6.029,13.3005,4.60011,2470.11,2020-5-01T02:42:44Z
2020-05-01T00:45:06Z,42.805,6.029,13.3028,4.60024,2470.147,2020-5-01T02:45:47Z
2020-05-01T00:48:10Z,42.805,6.029,13.3012,4.60029,2470.171,2020-5-01T02:48:51Z
2020-05-01T00:51:13Z,42.805,6.029,13.3026,4.60031,2470.171,2020-5-01T02:51:54Z
2020-05-01T00:54:16Z,42.805,6.029,13.2996,4.60034,2470.147,2020-5-01T02:54:57Z
2020-05-01T00:57:19Z,42.805,6.029,13.3019,4.60019,2470.156,2020-5-01T02:58:00Z
2020-05-01T01:00:23Z,42.805,6.029,13.3005,4.60046,2470.11,2020-5-01T03:01:03Z
2020-05-01T01:03:26Z,42.805,6.029,13.2993,4.60028,2470.124,2020-5-01T03:04:07Z
2020-05-01T01:06:29Z,42.805,6.029,13.3018,4.60050,2470.156,2020-5-01T03:07:10Z
2020-05-01T01:09:33Z,42.805,6.029,13.3021,4.59998,2470.124,2020-5-01T03:10:13Z
2020-05-01T01:12:36Z,42.805,6.029,13.2998,4.59999,2470.156,2020-5-01T03:13:17Z
2020-05-01T01:15:39Z,42.805,6.029,13.3009,4.60072,2470.147,2020-5-01T03:16:20Z
2020-05-01T01:18:42Z,42.805,6.029,13.3011,4.60015,2470.156,2020-5-01T03:19:23Z
2020-05-01T01:21:46Z,42.805,6.029,13.3029,4.60052,2470.171,2020-5-01T03:22:27Z
2020-05-01T01:24:49Z,42.805,6.029,13.3049,4.60020,2470.147,2020-5-01T03:25:30Z
2020-05-01T01:27:52Z,42.805,6.029,13.3042,4.60059,2470.133,2020-5-01T03:28:33Z
2020-05-01T01:30:55Z,42.805,6.029,13.3051,4.59996,2470.133,2020-5-01T03:31:36Z
2020-05-01T01:33:59Z,42.805,6.029,13.3032,4.60011,2470.133,2020-5-01T03:34:39Z
2020-05-01T01:37:02Z,42.805,6.029,13.3001,4.60031,2470.147,2020-5-01T03:37:43Z
2020-05-01T01:40:05Z,42.805,6.029,13.3015,4.60002,2470.133,2020-5-01T03:40:46Z
2020-05-01T01:43:08Z,42.805,6.029,13.3025,4.60014,2470.133,2020-5-01T03:43:49Z
2020-05-01T01:46:12Z,42.805,6.029,13.3000,4.60030,2470.133,2020-5-01T03:46:52Z
2020-05-01T01:49:15Z,42.805,6.029,13.3043,4.60035,2470.11,2020-5-01T03:49:56Z
2020-05-01T01:52:18Z,42.805,6.029,13.3039,4.60033,2470.171,2020-5-01T03:52:59Z
2020-05-01T01:55:21Z,42.805,6.029,13.3036,4.60080,2470.147,2020-5-01T03:56:02Z
2020-05-01T01:58:25Z,42.805,6.029,13.3011,4.60066,2470.124,2020-5-01T03:59:05Z
2020-05-01T02:01:28Z,42.805,6.029,13.3032,4.60053,2470.147,2020-5-01T04:02:09Z
2020-05-01T02:04:31Z,42.805,6.029,13.3026,4.60044,2470.171,2020-5-01T04:05:12Z
2020-05-01T02:07:35Z,42.805,6.029,13.3037,4.60016,2470.133,2020-5-01T04:08:15Z
2020-05-01T02:10:38Z,42.805,6.029,13.3015,4.60017,2470.11,2020-5-01T04:11:19Z
2020-05-01T02:13:41Z,42.805,6.029,13.3036,4.60045,2470.194,2020-5-01T04:14:22Z
2020-05-01T02:16:44Z,42.805,6.029,13.3026,4.60015,2470.156,2020-5-01T04:17:25Z
2020-05-01T02:19:48Z,42.805,6.029,13.3043,4.60085,2470.147,2020-5-01T04:20:28Z
2020-05-01T02:22:51Z,42.805,6.029,13.3033,4.60062,2470.156,2020-5-01T04:23:32Z
2020-05-01T02:25:54Z,42.805,6.029,13.3035,4.60052,2470.147,2020-5-01T04:26:35Z
2020-05-01T02:28:57Z,42.805,6.029,13.3035,4.60047,2470.156,2020-5-01T04:29:38Z
2020-05-01T02:32:01Z,42.805,6.029,13.3040,4.60035,2470.133,2020-5-01T04:32:41Z
2020-05-01T02:35:04Z,42.805,6.029,13.3031,4.60072,2470.171,2020-5-01T04:35:45Z
2020-05-01T02:38:07Z,42.805,6.029,13.3039,4.60064,2470.11,2020-5-01T04:38:48Z
2020-05-01T02:41:10Z,42.805,6.029,13.3031,4.60099,2470.156,2020-5-01T04:41:51Z
2020-05-01T02:44:13Z,42.805,6.029,13.3029,4.60026,2470.18,2020-5-01T04:44:54Z
2020-05-01T02:47:17Z,42.805,6.029,13.2995,4.60054,2470.147,2020-5-01T04:47:58Z
2020-05-01T02:50:20Z,42.805,6.029,13.3015,4.60036,2470.147,2020-5-01T04:51:01Z
2020-05-01T02:53:23Z,42.805,6.029,13.3040,4.60075,2470.147,2020-5-01T04:54:04Z
2020-05-01T02:56:26Z,42.805,6.029,13.3043,4.60073,2470.124,2020-5-01T04:57:07Z
2020-05-01T02:59:30Z,42.805,6.029,13.3041,4.60051,2470.156,2020-5-01T05:00:11Z
2020-05-01T03:02:33Z,42.805,6.029,13.3026,4.60095,2470.133,2020-5-01T05:03:14Z
2020-05-01T03:05:36Z,42.805,6.029,13.3059,4.60052,2470.133,2020-5-01T05:06:17Z
2020-05-01T03:08:39Z,42.805,6.029,13.3030,4.60037,2470.147,2020-5-01T05:09:20Z
2020-05-01T03:11:43Z,42.805,6.029,13.3017,4.60040,2470.133,2020-5-01T05:12:23Z
2020-05-01T03:14:46Z,42.805,6.029,13.3019,4.60103,2470.171,2020-5-01T05:15:27Z
2020-05-01T03:17:49Z,42.805,6.029,13.3024,4.60057,2470.133,2020-5-01T05:18:30Z
2020-05-01T03:20:53Z,42.805,6.029,13.3056,4.60013,2470.133,2020-5-01T05:21:33Z
2020-05-01T03:23:56Z,42.805,6.029,13.3006,4.60049,2470.133,2020-5-01T05:24:37Z
2020-05-01T03:26:59Z,42.805,6.029,13.3014,4.60066,2470.133,2020-5-01T05:27:40Z
2020-05-01T03:30:02Z,42.805,6.029,13.3019,4.60054,2470.11,2020-5-01T05:30:43Z
2020-05-01T03:33:05Z,42.805,6.029,13.3026,4.60052,2470.133,2020-5-01T05:33:46Z
2020-05-01T03:36:09Z,42.805,6.029,13.3024,4.60059,2470.171,2020-5-01T05:36:50Z
2020-05-01T03:39:12Z,42.805,6.029,13.3031,4.60053,2470.166,2020-5-01T05:39:53Z
2020-05-01T03:42:15Z,42.805,6.029,13.3005,4.60038,2470.11,2020-5-01T05:42:56Z
2020-05-01T03:45:19Z,42.805,6.029,13.3022,4.60045,2470.147,2020-5-01T05:46:00Z
2020-05-01T03:48:22Z,42.805,6.029,13.3026,4.60046,2470.133,2020-5-01T05:49:03Z
2020-05-01T03:51:25Z,42.805,6.029,13.3009,4.60044,2470.133,2020-5-01T05:52:06Z
2020-05-01T03:54:28Z,42.805,6.029,13.3027,4.60049,2470.133,2020-5-01T05:55:09Z
2020-05-01T03:57:32Z,42.805,6.029,13.2996,4.60047,2470.11,2020-5-01T05:58:12Z
2020-05-01T04:00:35Z,42.805,6.029,13.2998,4.60057,2470.11,2020-5-01T06:01:16Z
2020-05-01T04:03:38Z,42.805,6.029,13.3014,4.60031,2470.124,2020-5-01T06:04:19Z
2020-05-01T04:06:41Z,42.805,6.029,13.3029,4.60047,2470.11,2020-5-01T06:07:22Z
2020-05-01T04:09:45Z,42.805,6.029,13.3012,4.60026,2470.124,2020-5-01T06:10:25Z
2020-05-01T04:12:48Z,42.805,6.029,13.3002,4.60033,2470.133,2020-5-01T06:13:29Z
2020-05-01T04:15:51Z,42.805,6.029,13.3017,4.60039,2470.11,2020-5-01T06:16:32Z
2020-05-01T04:18:54Z,42.805,6.029,13.3011,4.60033,2470.124,2020-5-01T06:19:35Z
2020-05-01T04:21:57Z,42.805,6.029,13.3011,4.60038,2470.1,2020-5-01T06:22:38Z
2020-05-01T04:25:01Z,42.805,6.029,13.2996,4.60023,2470.147,2020-5-01T06:25:42Z
2020-05-01T04:28:04Z,42.805,6.029,13.3014,4.60044,2470.147,2020-5-01T06:28:45Z
2020-05-01T04:31:07Z,42.805,6.029,13.3004,4.60042,2470.124,2020-5-01T06:31:48Z
2020-05-01T04:34:11Z,42.805,6.029,13.3014,4.60029,2470.124,2020-5-01T06:34:51Z
2020-05-01T04:37:14Z,42.805,6.029,13.3005,4.60050,2470.087,2020-5-01T06:37:55Z
2020-05-01T04:40:17Z,42.805,6.029,13.2999,4.60046,2470.11,2020-5-01T06:40:58Z
2020-05-01T04:43:20Z,42.805,6.029,13.3024,4.60033,2470.11,2020-5-01T06:44:01Z
2020-05-01T04:46:24Z,42.805,6.029,13.3016,4.60046,2470.133,2020-5-01T06:47:04Z
2020-05-01T04:49:27Z,42.805,6.029,13.3013,4.60046,2470.124,2020-5-01T06:50:08Z
2020-05-01T04:52:30Z,42.805,6.029,13.3010,4.60045,2470.124,2020-5-01T06:53:11Z
2020-05-01T04:55:33Z,42.805,6.029,13.3011,4.60051,2470.11,2020-5-01T06:56:14Z
2020-05-01T04:58:37Z,42.805,6.029,13.3007,4.60039,2470.124,2020-5-01T06:59:18Z
2020-05-01T05:01:40Z,42.805,6.029,13.3010,4.60048,2470.11,2020-5-01T07:02:21Z
2020-05-01T05:04:43Z,42.805,6.029,13.3015,4.60049,2470.087,2020-5-01T07:05:24Z
2020-05-01T05:07:47Z,42.805,6.029,13.3015,4.60029,2470.1,2020-5-01T07:08:27Z
2020-05-01T05:10:50Z,42.805,6.029,13.3015,4.60040,2470.1,2020-5-01T07:11:31Z
2020-05-01T05:13:53Z,42.805,6.029,13.3011,4.60052,2470.124,2020-5-01T07:14:34Z
2020-05-01T05:16:57Z,42.805,6.029,13.3018,4.60041,2470.077,2020-5-01T07:17:37Z
2020-05-01T05:20:00Z,42.805,6.029,13.3006,4.60057,2470.124,2020-5-01T07:20:41Z
2020-05-01T05:23:03Z,42.805,6.029,13.2995,4.60025,2470.124,2020-5-01T07:23:44Z
2020-05-01T05:26:06Z,42.805,6.029,13.3019,4.60041,2470.11,2020-5-01T07:26:47Z
2020-05-01T05:29:10Z,42.805,6.029,13.3015,4.60040,2470.124,2020-5-01T07:29:51Z
2020-05-01T05:32:13Z,42.805,6.029,13.2998,4.60041,2470.11,2020-5-01T07:32:54Z
2020-05-01T05:35:16Z,42.805,6.029,13.3021,4.60019,2470.147,2020-5-01T07:35:57Z
2020-05-01T05:38:20Z,42.805,6.029,13.3003,4.60044,2470.087,2020-5-01T07:39:00Z
2020-05-01T05:41:23Z,42.805,6.029,13.2990,4.60019,2470.124,2020-5-01T07:42:04Z
2020-05-01T05:44:26Z,42.805,6.029,13.3000,4.60045,2470.124,2020-5-01T07:45:07Z
2020-05-01T05:47:29Z,42.805,6.029,13.2993,4.60031,2470.063,2020-5-01T07:48:10Z
2020-05-01T05:50:33Z,42.805,6.029,13.2990,4.60033,2470.063,2020-5-01T07:51:13Z
2020-05-01T05:53:36Z,42.805,6.029,13.2993,4.60032,2470.1,2020-5-01T07:54:17Z
2020-05-01T05:56:39Z,42.805,6.029,13.3014,4.60043,2470.063,2020-5-01T07:57:20Z
2020-05-01T05:59:42Z,42.805,6.029,13.2997,4.60033,2470.087,2020-5-01T08:00:23Z
2020-05-01T06:02:45Z,42.805,6.029,13.3010,4.60043,2470.124,2020-5-01T08:03:26Z
2020-05-01T06:05:49Z,42.805,6.029,13.3002,4.60027,2470.063,2020-5-01T08:06:29Z
2020-05-01T06:08:52Z,42.805,6.029,13.3010,4.60049,2470.063,2020-5-01T08:09:33Z
2020-05-01T06:11:55Z,42.805,6.029,13.2996,4.60011,2470.04,2020-5-01T08:12:36Z
2020-05-01T06:14:58Z,42.805,6.029,13.2994,4.60021,2470.077,2020-5-01T08:15:39Z
2020-05-01T06:18:02Z,42.805,6.029,13.2994,4.60003,2470.11,2020-5-01T08:18:42Z
2020-05-01T06:21:05Z,42.805,6.029,13.2989,4.59986,2470.049,2020-5-01T08:21:46Z
2020-05-01T06:24:08Z,42.805,6.029,13.2980,4.60034,2470.077,2020-5-01T08:24:49Z
2020-05-01T06:27:11Z,42.805,6.029,13.2993,4.60009,2470.063,2020-5-01T08:27:52Z
2020-05-01T06:30:15Z,42.805,6.029,13.2978,4.59999,2470.063,2020-5-01T08:30:55Z
2020-05-01T06:33:18Z,42.805,6.029,13.2986,4.59999,2470.053,2020-5-01T08:33:59Z
2020-05-01T06:36:21Z,42.805,6.029,13.2986,4.59993,2470.063,2020-5-01T08:37:02Z
2020-05-01T06:39:24Z,42.805,6.029,13.2988,4.60019,2470.063,2020-5-01T08:40:05Z
2020-05-01T06:42:28Z,42.805,6.029,13.2994,4.59999,2470.063,2020-5-01T08:43:08Z
2020-05-01T06:45:31Z,42.805,6.029,13.3005,4.60003,2470.04,2020-5-01T08:46:12Z
2020-05-01T06:48:34Z,42.805,6.029,13.2989,4.60012,2470.04,2020-5-01T08:49:15Z
2020-05-01T06:51:38Z,42.805,6.029,13.2992,4.60017,2470.063,2020-5-01T08:52:18Z
2020-05-01T06:54:41Z,42.805,6.029,13.2998,4.60016,2470.063,2020-5-01T08:55:22Z
2020-05-01T06:57:44Z,42.805,6.029,13.2999,4.60024,2470.077,2020-5-01T08:58:25Z
2020-05-01T07:00:47Z,42.805,6.029,13.2993,4.59994,2470.063,2020-5-01T09:01:28Z
2020-05-01T07:03:51Z,42.805,6.029,13.2985,4.59991,2470.1,2020-5-01T09:04:31Z
2020-05-01T07:06:54Z,42.805,6.029,13.3008,4.60011,2470.04,2020-5-01T09:07:35Z
2020-05-01T07:09:57Z,42.805,6.029,13.2999,4.60004,2470.04,2020-5-01T09:10:38Z
2020-05-01T07:13:00Z,42.805,6.029,13.2999,4.59981,2470.063,2020-5-01T09:13:41Z
2020-05-01T07:16:03Z,42.805,6.029,13.3004,4.60016,2470.077,2020-5-01T09:16:44Z
2020-05-01T07:19:07Z,42.805,6.029,13.2995,4.60005,2470.063,2020-5-01T09:19:48Z
2020-05-01T07:22:10Z,42.805,6.029,13.2990,4.60009,2470.03,2020-5-01T09:22:51Z
2020-05-01T07:25:13Z,42.805,6.029,13.2990,4.60032,2470.063,2020-5-01T09:25:54Z
2020-05-01T07:28:17Z,42.805,6.029,13.3000,4.59999,2470.017,2020-5-01T09:28:57Z
2020-05-01T07:31:20Z,42.805,6.029,13.3009,4.60016,2470.11,2020-5-01T09:32:01Z
2020-05-01T07:34:23Z,42.805,6.029,13.2987,4.59996,2470.04,2020-5-01T09:35:04Z
2020-05-01T07:37:26Z,42.805,6.029,13.3001,4.60027,2470.007,2020-5-01T09:38:07Z
2020-05-01T07:40:30Z,42.805,6.029,13.2992,4.60011,2470.04,2020-5-01T09:41:10Z
2020-05-01T07:43:33Z,42.805,6.029,13.3001,4.59991,2470.017,2020-5-01T09:44:14Z
2020-05-01T07:46:36Z,42.805,6.029,13.2999,4.60007,2470.04,2020-5-01T09:47:17Z
2020-05-01T07:49:39Z,42.805,6.029,13.2990,4.60001,2470.017,2020-5-01T09:50:20Z
2020-05-01T07:52:43Z,42.805,6.029,13.2983,4.60007,2470.053,2020-5-01T09:53:23Z
2020-05-01T07:55:46Z,42.805,6.029,13.2988,4.59997,2470.04,2020-5-01T09:56:27Z
2020-05-01T07:58:49Z,42.805,6.029,13.2981,4.59995,2470.017,2020-5-01T09:59:30Z
2020-05-01T08:01:52Z,42.805,6.029,13.2994,4.59991,2470.017,2020-5-01T10:02:33Z
2020-05-01T08:04:55Z,42.805,6.029,13.2996,4.59986,2470.017,2020-5-01T10:05:36Z
2020-05-01T08:07:59Z,42.805,6.029,13.2982,4.59997,2470.017,2020-5-01T10:08:40Z
2020-05-01T08:11:02Z,42.805,6.029,13.2988,4.60000,2470.04,2020-5-01T10:11:43Z
2020-05-01T08:14:05Z,42.805,6.029,13.2986,4.59985,2470.053,2020-5-01T10:14:46Z
2020-05-01T08:17:08Z,42.805,6.029,13.2989,4.59995,2470.017,2020-5-01T10:17:49Z
2020-05-01T08:20:12Z,42.805,6.029,13.2986,4.59999,2470.04,2020-5-01T10:20:53Z
2020-05-01T08:23:15Z,42.805,6.029,13.2983,4.59979,2470.017,2020-5-01T10:23:56Z
2020-05-01T08:26:18Z,42.805,6.029,13.2977,4.59994,2470.063,2020-5-01T10:26:59Z
2020-05-01T08:29:21Z,42.805,6.029,13.2982,4.59990,2469.993,2020-5-01T10:30:02Z
2020-05-01T08:32:25Z,42.805,6.029,13.2986,4.59979,2470.053,2020-5-01T10:33:05Z
2020-05-01T08:35:28Z,42.805,6.029,13.2982,4.59986,2470.017,2020-5-01T10:36:09Z
2020-05-01T08:38:31Z,42.805,6.029,13.2978,4.59998,2470.04,2020-5-01T10:39:12Z
2020-05-01T08:41:34Z,42.805,6.029,13.2988,4.59978,2470.053,2020-5-01T10:42:15Z
2020-05-01T08:44:38Z,42.805,6.029,13.2981,4.59989,2469.993,2020-5-01T10:45:18Z
2020-05-01T08:47:41Z,42.805,6.029,13.2988,4.59996,2470.053,2020-5-01T10:48:22Z
2020-05-01T08:50:44Z,42.805,6.029,13.2987,4.59986,2470.03,2020-5-01T10:51:25Z
2020-05-01T08:53:47Z,42.805,6.029,13.2981,4.59990,2470.007,2020-5-01T10:54:28Z
2020-05-01T08:56:50Z,42.805,6.029,13.2980,4.59984,2470.017,2020-5-01T10:57:31Z
2020-05-01T08:59:54Z,42.805,6.029,13.2978,4.59991,2470.017,2020-5-01T11:00:35Z
2020-05-01T09:02:57Z,42.805,6.029,13.2987,4.59999,2470.017,2020-5-01T11:03:38Z
2020-05-01T09:06:00Z,42.805,6.029,13.2982,4.59987,2470.04,2020-5-01T11:06:41Z
2020-05-01T09:09:04Z,42.805,6.029,13.2992,4.59991,2470.03,2020-5-01T11:09:44Z
2020-05-01T09:12:07Z,42.805,6.029,13.2985,4.59986,2469.993,2020-5-01T11:12:48Z
2020-05-01T09:15:10Z,42.805,6.029,13.2982,4.59991,2470.017,2020-5-01T11:15:51Z
2020-05-01T09:18:13Z,42.805,6.029,13.2987,4.59984,2469.993,2020-5-01T11:18:54Z
2020-05-01T09:21:17Z,42.805,6.029,13.2985,4.59981,2470.03,2020-5-01T11:21:57Z
2020-05-01T09:24:20Z,42.805,6.029,13.2979,4.60002,2470.04,2020-5-01T11:25:01Z
2020-05-01T09:27:23Z,42.805,6.029,13.2982,4.59980,2470.03,2020-5-01T11:28:04Z
2020-05-01T09:30:26Z,42.805,6.029,13.2984,4.59991,2470.03,2020-5-01T11:31:07Z
2020-05-01T09:33:30Z,42.805,6.029,13.2989,4.59983,2470.03,2020-5-01T11:34:11Z
2020-05-01T09:36:33Z,42.805,6.029,13.2981,4.59999,2470.04,2020-5-01T11:37:14Z
2020-05-01T09:39:36Z,42.805,6.029,13.2995,4.59988,2470.053,2020-5-01T11:40:17Z
2020-05-01T09:42:39Z,42.805,6.029,13.2982,4.60003,2470.04,2020-5-01T11:43:20Z
2020-05-01T09:45:43Z,42.805,6.029,13.2985,4.59997,2470.04,2020-5-01T11:46:23Z
2020-05-01T09:48:46Z,42.805,6.029,13.2981,4.59986,2470.017,2020-5-01T11:49:27Z
2020-05-01T09:51:49Z,42.805,6.029,13.2980,4.60002,2470.007,2020-5-01T11:52:30Z
2020-05-01T09:54:52Z,42.805,6.029,13.2985,4.59977,2470.04,2020-5-01T11:55:33Z
2020-05-01T09:57:56Z,42.805,6.029,13.2994,4.59987,2470.017,2020-5-01T11:58:36Z
2020-05-01T10:00:59Z,42.805,6.029,13.2983,4.59981,2470.03,2020-5-01T12:01:40Z
2020-05-01T10:04:02Z,42.805,6.029,13.2979,4.59983,2470.03,2020-5-01T12:04:43Z
2020-05-01T10:07:05Z,42.805,6.029,13.2982,4.59987,2470.063,2020-5-01T12:07:46Z
2020-05-01T10:10:09Z,42.805,6.029,13.2987,4.59984,2470.04,2020-5-01T12:10:49Z
2020-05-01T10:13:12Z,42.805,6.029,13.2979,4.59988,2470.03,2020-5-01T12:13:53Z
2020-05-01T10:16:15Z,42.805,6.029,13.2979,4.60001,2470.053,2020-5-01T12:16:56Z
2020-05-01T10:19:18Z,42.805,6.029,13.2986,4.59989,2470.04,2020-5-01T12:19:59Z
2020-05-01T10:22:21Z,42.805,6.029,13.2986,4.59981,2470.053,2020-5-01T12:23:02Z
2020-05-01T10:25:25Z,42.805,6.029,13.2988,4.59983,2470.053,2020-5-01T12:26:05Z
2020-05-01T10:28:28Z,42.805,6.029,13.2982,4.59982,2470.04,2020-5-01T12:29:09Z
2020-05-01T10:31:31Z,42.805,6.029,13.2975,4.59987,2470.053,2020-5-01T12:32:12Z
2020-05-01T10:34:34Z,42.805,6.029,13.2981,4.59986,2470.091,2020-5-01T12:35:15Z
2020-05-01T10:37:38Z,42.805,6.029,13.2986,4.59981,2470.04,2020-5-01T12:38:18Z
2020-05-01T10:40:41Z,42.805,6.029,13.2988,4.59986,2470.03,2020-5-01T12:41:22Z
2020-05-01T10:43:44Z,42.805,6.029,13.2984,4.59986,2470.017,2020-5-01T12:44:25Z
2020-05-01T10:46:47Z,42.805,6.029,13.2992,4.59986,2470.017,2020-5-01T12:47:28Z
2020-05-01T10:49:51Z,42.805,6.029,13.2983,4.59984,2470.007,2020-5-01T12:50:31Z
2020-05-01T10:52:54Z,42.805,6.029,13.2982,4.59984,2470.063,2020-5-01T12:53:35Z
2020-05-01T10:55:57Z,42.805,6.029,13.2990,4.59981,2470.017,2020-5-01T12:56:38Z
2020-05-01T10:59:01Z,42.805,6.029,13.2983,4.59985,2470.063,2020-5-01T12:59:42Z
2020-05-01T11:02:04Z,42.805,6.029,13.2979,4.59981,2470.053,2020-5-01T13:02:45Z
2020-05-01T11:05:07Z,42.805,6.029,13.2981,4.59983,2470.063,2020-5-01T13:05:48Z
2020-05-01T11:08:11Z,42.805,6.029,13.2985,4.59979,2470.04,2020-5-01T13:08:51Z
2020-05-01T11:11:14Z,42.805,6.029,13.2988,4.59983,2470.077,2020-5-01T13:11:55Z
2020-05-01T11:14:17Z,42.805,6.029,13.2991,4.59978,2470.053,2020-5-01T13:14:58Z
2020-05-01T11:17:20Z,42.805,6.029,13.2990,4.59985,2470.04,2020-5-01T13:18:01Z
2020-05-01T11:20:23Z,42.805,6.029,13.2983,4.59981,2470.053,2020-5-01T13:21:04Z
2020-05-01T11:23:27Z,42.805,6.029,13.2989,4.59982,2470.04,2020-5-01T13:24:08Z
2020-05-01T11:26:30Z,42.805,6.029,13.2974,4.59976,2470.017,2020-5-01T13:27:11Z
2020-05-01T11:29:33Z,42.805,6.029,13.2983,4.59981,2470.053,2020-5-01T13:30:14Z
2020-05-01T11:32:37Z,42.805,6.029,13.2981,4.59980,2469.993,2020-5-01T13:33:17Z
2020-05-01T11:35:40Z,42.805,6.029,13.2991,4.59976,2470.053,2020-5-01T13:36:21Z
2020-05-01T11:38:43Z,42.805,6.029,13.2981,4.59978,2470.053,2020-5-01T13:39:24Z
2020-05-01T11:41:46Z,42.805,6.029,13.2988,4.59983,2470.063,2020-5-01T13:42:27Z
2020-05-01T11:44:49Z,42.805,6.029,13.2982,4.59985,2469.993,2020-5-01T13:45:30Z
2020-05-01T11:47:53Z,42.805,6.029,13.2985,4.59983,2470.053,2020-5-01T13:48:34Z
2020-05-01T11:50:56Z,42.805,6.029,13.2982,4.59982,2470.04,2020-5-01T13:51:37Z
2020-05-01T11:53:59Z,42.805,6.029,13.2979,4.59981,2470.04,2020-5-01T13:54:40Z
2020-05-01T11:57:03Z,42.805,6.029,13.2977,4.59981,2470.053,2020-5-01T13:57:44Z
2020-05-01T12:00:06Z,42.805,6.029,13.2984,4.59980,2470.063,2020-5-01T14:00:47Z
2020-05-01T12:03:09Z,42.805,6.029,13.2983,4.59981,2470.077,2020-5-01T14:03:50Z
2020-05-01T12:06:12Z,42.805,6.029,13.2982,4.59986,2470.077,2020-5-01T14:06:53Z
2020-05-01T12:09:16Z,42.805,6.029,13.2974,4.59982,2470.03,2020-5-01T14:09:57Z
2020-05-01T12:12:19Z,42.805,6.029,13.2983,4.59984,2470.063,2020-5-01T14:13:00Z
2020-05-01T12:15:22Z,42.805,6.029,13.2977,4.59978,2470.077,2020-5-01T14:16:03Z
2020-05-01T12:18:25Z,42.805,6.029,13.2984,4.59986,2470.063,2020-5-01T14:19:06Z
2020-05-01T12:21:29Z,42.805,6.029,13.2985,4.59980,2470.077,2020-5-01T14:22:10Z
2020-05-01T12:24:32Z,42.805,6.029,13.2980,4.59985,2470.063,2020-5-01T14:25:13Z
2020-05-01T12:27:35Z,42.805,6.029,13.2982,4.59982,2470.077,2020-5-01T14:28:16Z
2020-05-01T12:30:38Z,42.805,6.029,13.2988,4.59984,2470.04,2020-5-01T14:31:19Z
2020-05-01T12:33:42Z,42.805,6.029,13.2983,4.59979,2470.04,2020-5-01T14:34:23Z
2020-05-01T12:36:45Z,42.805,6.029,13.2982,4.59978,2470.063,2020-5-01T14:37:26Z
2020-05-01T12:39:48Z,42.805,6.029,13.2976,4.59987,2470.03,2020-5-01T14:40:29Z
2020-05-01T12:42:51Z,42.805,6.029,13.2974,4.59987,2470.077,2020-5-01T14:43:32Z
2020-05-01T12:45:55Z,42.805,6.029,13.2979,4.59978,2470.087,2020-5-01T14:46:35Z
2020-05-01T12:48:58Z,42.805,6.029,13.2979,4.59976,2470.063,2020-5-01T14:49:39Z
2020-05-01T12:52:01Z,42.805,6.029,13.2979,4.59983,2470.04,2020-5-01T14:52:42Z
2020-05-01T12:55:04Z,42.805,6.029,13.2979,4.59991,2470.063,2020-5-01T14:55:45Z
2020-05-01T12:58:07Z,42.805,6.029,13.2986,4.59984,2470.077,2020-5-01T14:58:48Z
2020-05-01T13:01:11Z,42.805,6.029,13.2976,4.59976,2470.063,2020-5-01T15:01:52Z
2020-05-01T13:04:14Z,42.805,6.029,13.2980,4.59988,2470.077,2020-5-01T15:04:55Z
2020-05-01T13:07:17Z,42.805,6.029,13.2982,4.59982,2470.053,2020-5-01T15:07:58Z
2020-05-01T13:10:21Z,42.805,6.029,13.2981,4.59979,2470.063,2020-5-01T15:11:02Z
2020-05-01T13:13:24Z,42.805,6.029,13.2979,4.59986,2470.077,2020-5-01T15:14:05Z
2020-05-01T13:16:27Z,42.805,6.029,13.2973,4.59986,2470.077,2020-5-01T15:17:08Z
2020-05-01T13:19:30Z,42.805,6.029,13.2985,4.59986,2470.077,2020-5-01T15:20:11Z
2020-05-01T13:22:34Z,42.805,6.029,13.2988,4.59987,2470.053,2020-5-01T15:23:14Z
2020-05-01T13:25:37Z,42.805,6.029,13.2983,4.59976,2470.017,2020-5-01T15:26:18Z
2020-05-01T13:28:40Z,42.805,6.029,13.2973,4.59995,2470.087,2020-5-01T15:29:21Z
2020-05-01T13:31:43Z,42.805,6.029,13.2979,4.59981,2470.017,2020-5-01T15:32:24Z
2020-05-01T13:34:47Z,42.805,6.029,13.2983,4.59987,2470.053,2020-5-01T15:35:28Z
2020-05-01T13:37:50Z,42.805,6.029,13.2979,4.59992,2470.04,2020-5-01T15:38:31Z
2020-05-01T13:40:53Z,42.805,6.029,13.2975,4.59984,2470.063,2020-5-01T15:41:34Z
2020-05-01T13:43:56Z,42.805,6.029,13.2985,4.59996,2470.04,2020-5-01T15:44:37Z
2020-05-01T13:47:00Z,42.805,6.029,13.2982,4.59981,2470.077,2020-5-01T15:47:40Z
2020-05-01T13:50:03Z,42.805,6.029,13.2982,4.59985,2469.993,2020-5-01T15:50:44Z
2020-05-01T13:53:06Z,42.805,6.029,13.2986,4.59982,2470.04,2020-5-01T15:53:47Z
2020-05-01T13:56:09Z,42.805,6.029,13.2981,4.59982,2470.063,2020-5-01T15:56:50Z
2020-05-01T13:59:13Z,42.805,6.029,13.2988,4.59983,2470.087,2020-5-01T15:59:54Z
2020-05-01T14:02:16Z,42.805,6.029,13.2976,4.59989,2470.053,2020-5-01T16:02:57Z
2020-05-01T14:05:19Z,42.805,6.029,13.2993,4.59986,2470.04,2020-5-01T16:06:00Z
2020-05-01T14:08:22Z,42.805,6.029,13.2981,4.59993,2470.03,2020-5-01T16:09:03Z
2020-05-01T14:11:26Z,42.805,6.029,13.2990,4.59981,2470.04,2020-5-01T16:12:07Z
2020-05-01T14:14:29Z,42.805,6.029,13.2982,4.59981,2470.063,2020-5-01T16:15:10Z
2020-05-01T14:17:32Z,42.805,6.029,13.2985,4.59985,2470.063,2020-5-01T16:18:13Z
2020-05-01T14:20:36Z,42.805,6.029,13.2982,4.59979,2470.063,2020-5-01T16:21:17Z
2020-05-01T14:23:39Z,42.805,6.029,13.2976,4.59985,2470.04,2020-5-01T16:24:20Z
2020-05-01T14:26:42Z,42.805,6.029,13.2982,4.59976,2470.04,2020-5-01T16:27:23Z
2020-05-01T14:29:45Z,42.805,6.029,13.2980,4.59991,2470.063,2020-5-01T16:30:26Z
2020-05-01T14:32:48Z,42.805,6.029,13.2982,4.59988,2470.063,2020-5-01T16:33:29Z
2020-05-01T14:35:52Z,42.805,6.029,13.2976,4.59987,2470.04,2020-5-01T16:36:33Z
2020-05-01T14:38:55Z,42.805,6.029,13.2976,4.59996,2470.053,2020-5-01T16:39:36Z
2020-05-01T14:41:58Z,42.805,6.029,13.2989,4.59999,2470.077,2020-5-01T16:42:39Z
2020-05-01T14:45:01Z,42.805,6.029,13.2981,4.59993,2470.053,2020-5-01T16:45:42Z
2020-05-01T14:48:04Z,42.805,6.029,13.2980,4.59984,2470.053,2020-5-01T16:48:45Z
2020-05-01T14:51:08Z,42.805,6.029,13.2984,4.59979,2470.04,2020-5-01T16:51:49Z
2020-05-01T14:54:11Z,42.805,6.029,13.2977,4.59984,2470.1,2020-5-01T16:54:52Z
2020-05-01T14:57:14Z,42.805,6.029,13.2986,4.59985,2470.053,2020-5-01T16:57:55Z
2020-05-01T15:00:17Z,42.805,6.029,13.2984,4.59976,2470.04,2020-5-01T17:00:58Z
2020-05-01T15:03:21Z,42.805,6.029,13.2976,4.59975,2470.03,2020-5-01T17:04:01Z
2020-05-01T15:06:24Z,42.805,6.029,13.2990,4.59989,2470.077,2020-5-01T17:07:05Z
2020-05-01T15:09:27Z,42.805,6.029,13.2983,4.59999,2470.03,2020-5-01T17:10:08Z
2020-05-01T15:12:30Z,42.805,6.029,13.2979,4.59988,2470.053,2020-5-01T17:13:11Z
2020-05-01T15:15:34Z,42.805,6.029,13.2986,4.59979,2470.063,2020-5-01T17:16:14Z